Regional Weather Roundup
Issued by NWS

Home | Current Version | Previous Version | Text Only | Print | Product List | Glossary Off
Versions: 1 2 3 4 5 6 7 8 9 10 11 12 13 14 15 16 17 18 19 20 21 22 23 24 25 26 27 28 29 30 31 32 33 34 35 36 37 38 39 40 41 42 43 44 45 46 47 48 49 50

000
ASUS43 KBIS 240620
RWRND

NORTH DAKOTA REGIONAL WEATHER ROUNDUP
NATIONAL WEATHER SERVICE BISMARCK ND
100 AM CDT THU APR 24 2014

NOTE: "FAIR" INDICATES FEW OR NO CLOUDS BELOW 12,000 FEET WITH NO
SIGNIFICANT WEATHER AND/OR OBSTRUCTIONS TO VISIBILITY.


NDZ001>003-009>011-017-240700-
NORTHWEST NORTH DAKOTA

CITY           SKY/WX    TMP DP  RH WIND       PRES   REMARKS
WILLISTON      PTCLDY    39  30  70 SW8       29.64R
6HR MIN TEMP:  34; 6HR MAX TEMP:  56;

MINOT          FAIR      40  38  93 SW6       29.64F
MINOT AFB      CLOUDY    39  39 100 SW6       29.63F
$$

NDZ018>021-031>035-040>046-240700-
SOUTHWEST NORTH DAKOTA

CITY           SKY/WX    TMP DP  RH WIND       PRES   REMARKS
BISMARCK       MOCLDY    38  50 100 S3        29.74R
6HR MIN TEMP:  36; 6HR MAX TEMP:  53;

DICKINSON      CLEAR     36  24  62 SW9       29.70R
GARRISON         N/A     34  34 100 S5        29.69R
6HR MIN TEMP:  34; 6HR MAX TEMP:  46; 6HR PCP:  0.01;

HETTINGER ARPT PTCLDY    36  27  69 W7        29.76R
$$

NDZ004>008-012>016-024-026-027-054-240700-
NORTHEAST NORTH DAKOTA

CITY           SKY/WX    TMP DP  RH WIND       PRES   REMARKS
GRAND FORKS    LGT RAIN  39  37  92 SE17      29.83S FOG
GRND FRKS AFB  CLOUDY    37  37 100 SE12      29.82F FOG
DEVILS LAKE    CLOUDY    37  34  87 SE16      29.74F
$$

NDZ022-023-025-028>030-036>039-047>053-240700-
SOUTHEAST NORTH DAKOTA

CITY           SKY/WX    TMP DP  RH WIND       PRES   REMARKS
FARGO          LGT RAIN  42  38  85 SE13G24   29.80R
6HR MIN TEMP:  40; 6HR MAX TEMP:  43; 6HR PCP:  0.17;

JAMESTOWN      CLOUDY    40  38  93 S12       29.75F
$$




USA.gov is the U.S. government's official web portal to all federal, state and local government web resources and services.